Weather Service Report


915 
ASUS43 KDTX 291010
RWRMI 
MICHIGAN HOURLY REGIONAL WEATHER ROUNDUP
NATIONAL WEATHER SERVICE DETROIT/PONTIAC MI
600 AM EDT WED MAR 29 2017

NOTE: "FAIR" INDICATES FEW OR NO CLOUDS BELOW 12,000 FEET WITH NO
SIGNIFICANT WEATHER AND/OR OBSTRUCTION TO VISIBILITY.

MIZ047>049-052>055-059>063-066>070-074>076-081>083-291100-
SOUTHEAST LOWER MICHIGAN
  
CITY           SKY/WX    TMP DP  RH WIND       PRES   REMARKS
ADRIAN         CLEAR     31  29  92 NE6       30.23F WCI  25          
ALMA           PTCLDY    28  28 100 CALM      30.25S FOG              
ANN ARBOR      CLEAR     29  27  92 CALM      30.23R                  
BAD AXE        CLEAR     25  24  97 CALM      30.25S                  
CARO           CLEAR     27  27  97 CALM      30.25R                  
DETROIT CITY   CLEAR     33  30  88 N5        30.24R WCI  29          
DETROIT        CLEAR     35  30  82 NW3       30.25R                  
FLINT          CLEAR     30  28  92 CALM      30.25R                  
GROSSE ILE     CLEAR     32  30  92 CALM      30.23S                  
HILLSDALE      CLEAR     32  30  93 NE6       30.21S WCI  26          
HOWELL         CLEAR     30  28  95 CALM      30.24R                  

CITY           SKY/WX    TMP DP  RH WIND       PRES   REMARKS
JACKSON        FLURRIES  31  29  92 CALM      30.23S                  
LAMBERTVILLE   CLEAR     32  30  91 CALM      30.23S                  
LANSING        CLEAR     31  29  92 CALM      30.25R FOG              
LAPEER         FAIR      28  27  99 CALM      30.25R                  
MASON          CLEAR     31  31 100 CALM      30.25R FOG              
MONROE         CLEAR     33  32  95 N3        30.22F                  
MT. CLEMENS    CLEAR     31  30  97 N3        30.22R                  
PONTIAC        CLEAR     30  26  85 N3        30.22R                  
PORT HOPE        N/A     31  29  92 W6        30.23R WCI  25          
PORT HURON     CLEAR     27  27 100 CALM      30.24S                  
TRI CITIES     CLEAR     30  29  96 NW3       30.26R                  
MIDLAND        FAIR      27  26  96 NW3       30.25R                  
TROY           CLEAR     36  30  80 N3        30.25S                  
SAGINAW HB     CLEAR     30  28  93 CALM      30.25R                  
$$
MIZ043>046-050>051-056>058-064>065-071>073-077>080-291100-
SOUTHWEST LOWER MICHIGAN
  
CITY           SKY/WX    TMP DP  RH WIND       PRES   REMARKS
BATTLE CREEK   CLEAR     34  33  96 CALM      30.24R                  
BENTON HARBOR  CLEAR     29  26  89 CALM      30.24R                  
BIG RAPIDS     CLEAR     29  28  96 CALM      30.25R                  
COLDWATER      CLEAR     32  32 100 NE3       30.22R                  
FREMONT        FAIR      32  32 100 CALM      30.25R FOG              
HOLLAND        CLEAR     31  28  89 CALM      30.25R                  
GRAND RAPIDS   CLEAR     32  32 100 NE5       30.24S WCI  27          
IONIA          FAIR      32  32 100 CALM      30.25R FOG              
KALAMAZOO      CLEAR     31  28  89 N3        30.24R                  
LUDINGTON      CLEAR     29  29 100 CALM      30.27R                  
MARSHALL       CLEAR     29  28  98 CALM      30.23R                  
MOUNT PLEASANT CLEAR     30  29  96 CALM      30.25R                  
MUSKEGON       CLEAR     29  27  92 CALM      30.26R                  
SOUTH HAVEN    CLEAR     28  27  99 CALM      30.24R                  
$$
MIZ016>042-291100-
NORTHERN LOWER MICHIGAN
  
CITY           SKY/WX    TMP DP  RH WIND       PRES   REMARKS
ALPENA         CLEAR     31  29  92 NW3       30.27R                  
BEAVER ISLAND  SNOW      30  30 100 NE6       30.31R VSB 1/2 WCI  24  
BELLAIRE       CLEAR     26  24  95 CALM      30.30R                  
CADILLAC       CLEAR     26  25  96 CALM      30.25R                  
CHARLEVOIX     CLEAR     31  31 100 N5        30.32R WCI  26          
FRANKFORT      CLEAR     28  25  90 CALM      30.28R                  
GAYLORD        CLEAR     30  24  78 CALM      30.25R                  
GRAYLING       CLEAR     23  21  93 CALM      30.26S                  
HARBOR SPRINGS CLEAR     26  25  98 E3        30.28S                  
HOUGHTON LAKE  CLEAR     28  26  92 CALM      30.25S                  
MANISTEE       CLEAR     28  27  96 E3        30.28R                  
OSCODA         CLEAR     27  25  93 W6        30.25R WCI  20          
PELLSTON       CLOUDY    30  28  92 N6        30.30R FOG     WCI  24  
ROGERS CITY    CLEAR     32  30  93 CALM      30.29R                  
TRAVERSE CITY  PTCLDY    29  26  89 CALM      30.28R                  
$$
MIZ007>008-015-291100-
EASTERN UPPER MICHIGAN
  
CITY           SKY/WX    TMP DP  RH WIND       PRES   REMARKS
KINROSS        CLOUDY    27  25  93 CALM      30.30R FOG              
MACKINAC ISLAN CLOUDY    29  29 100 NE9       30.29R WCI  20          
NEWBERRY       CLEAR     28  27  98 CALM      30.31R                  
S. S. MARIE    CLEAR     32  25  75 NE6       30.30R WCI  26          
MUNISING         N/A     30  29  96 VRB3      30.35R                  
$$
MIZ004>006-011>014-085-291100-
CENTRAL UPPER MICHIGAN
  
CITY           SKY/WX    TMP DP  RH WIND       PRES   REMARKS
MANISTIQUE     CLEAR     28  27  97 N6        30.31R WCI  21          
ESCANABA       CLEAR     31  29  92 N5        30.33R WCI  26          
MENOMINEE        N/A    N/A N/A N/A MISG        N/A                   
SAWYER-GWINN   CLEAR     29  27  92 N7        30.32R WCI  22          
$$
MIZ001>003-009>011-084-291100-
WESTERN UPPER MICHIGAN
  
CITY           SKY/WX    TMP DP  RH WIND       PRES   REMARKS
IRON MOUNTAIN  CLEAR     25  21  85 CALM      30.29R                  
HOUGHTON       CLOUDY    32  27  81 E8        30.34R WCI  25          
COPPER HARBOR    N/A     30  25  81 CALM      30.37R                  
IRONWOOD       CLEAR     31  27  85 E7        30.28R WCI  24          
$$

ABBREVIATIONS USED IN REMARKS
   TC - TEMPERATURE IN CELSIUS
  WCI - WIND CHILL INDEX
   HX - HEAT INDEX
  VSB - VISIBILITY

  

Return to Home page


Western Regional Climate Center, wrcc@dri.edu